Location: Unspecified
(0.0000°N, 0.0000°E)
Time: 20:34:19
(UTC+00:00)

Vanguard 2 - Visible Passes

Search period start: 16 September 2019 00:00
Search period end: 26 September 2019 00:00
Orbit: 554 x 2937 km, 32.9° (Epoch: 16 September)

Date Brightness Start Highest point End Pass type
(mag) Time Alt. Az. Time Alt. Az. Time Alt. Az.
16 Sep 11.1 01:56:59 16° NE 01:56:59 16° NE 01:58:29 10° NE visible
16 Sep 10.5 03:58:24 20° NW 03:58:24 20° NW 04:04:19 10° N visible
16 Sep 11.5 19:15:09 10° SSW 19:22:02 14° SSE 19:29:45 10° SE visible
16 Sep 11.3 21:24:19 10° SSW 21:31:49 25° S 21:31:49 25° S visible
17 Sep 10.9 02:13:54 19° NNE 02:13:54 19° NNE 02:16:07 10° NE visible
17 Sep 10.7 04:15:18 13° NW 04:16:15 13° NW 04:20:31 10° N visible
17 Sep 11.4 19:33:04 10° SSW 19:41:43 17° SSE 19:47:08 14° SE visible
17 Sep 11.3 21:41:59 10° SSW 21:48:31 26° SSW 21:48:31 26° SSW visible
18 Sep 10.8 02:30:45 20° NNE 02:30:45 20° NNE 02:33:33 10° NNE visible
18 Sep 11.2 19:50:43 10° SSW 20:01:09 21° SSE 20:03:52 20° SE visible
18 Sep 11.3 21:59:42 10° SW 22:05:16 25° SSW 22:05:16 25° SSW visible
19 Sep 10.8 02:47:35 20° N 02:47:35 20° N 02:50:49 10° NNE visible
19 Sep 11.0 20:08:15 10° SSW 20:20:17 26° SSE 20:20:39 26° SSE visible
19 Sep 11.4 22:17:29 10° SW 22:22:03 23° SW 22:22:03 23° SW visible
20 Sep 10.9 03:04:23 17° N 03:04:23 17° N 03:07:53 10° N visible
20 Sep 11.4 18:19:14 10° S 18:24:02 12° SSE 18:29:26 10° SE visible
20 Sep 10.8 20:25:46 10° SSW 20:37:28 33° SSE 20:37:28 33° SSE visible
20 Sep 11.5 22:35:26 10° SW 22:38:53 20° SW 22:38:53 20° SW visible
21 Sep 11.0 03:21:08 14° NNW 03:21:08 14° NNW 03:24:36 10° N visible
21 Sep 11.2 18:36:12 10° S 18:43:24 16° SSE 18:51:53 10° ESE visible
21 Sep 10.7 20:43:20 10° SSW 20:54:21 39° S 20:54:21 39° S visible
21 Sep 11.7 22:53:34 10° SW 22:55:46 16° SW 22:55:46 16° SW visible
22 Sep 11.1 03:37:51 11° NNW 03:37:51 11° NNW 03:40:17 10° NNW visible
22 Sep 11.1 18:53:20 10° SSW 19:02:29 20° SSE 19:09:52 15° ESE visible
22 Sep 10.6 21:00:58 10° SW 21:11:17 44° S 21:11:17 44° S visible
22 Sep 11.8 23:11:58 10° WSW 23:12:42 12° WSW 23:12:42 12° WSW visible
23 Sep 11.4 01:53:10 11° NNE 01:53:10 11° NNE 01:53:44 10° NNE visible
23 Sep 10.9 19:10:36 10° SSW 19:21:17 27° SSE 19:26:51 23° ESE visible
23 Sep 10.6 21:18:45 10° SW 21:28:16 46° SSW 21:28:16 46° SSW visible
24 Sep 11.4 02:09:52 12° N 02:09:52 12° N 02:10:59 10° NNE visible
24 Sep 10.6 19:27:57 10° SSW 19:39:50 35° SE 19:43:55 31° ESE visible
24 Sep 10.7 21:36:41 10° SW 21:45:20 44° SW 21:45:20 44° SW visible
25 Sep 11.3 02:26:34 12° N 02:26:34 12° N 02:28:08 10° N visible
25 Sep 10.4 19:45:25 10° SSW 19:58:12 45° SE 20:01:01 42° ESE visible
25 Sep 10.9 21:54:51 10° WSW 22:02:27 39° WSW 22:02:27 39° WSW visible
